[[{"header":{"parameterUnit":"m.s-1","parameterCategory":1,"la1":30.2991,"la2":30.254,"lo1":-89.0895,"lo2":-89.0444,"dy":0.0017,"dx":0.0017,"nx":28,"ny":28,"refTime":"2024-07-24T21:00:00:Z","depth":0,"parameterNumber":2,"parameterNumberName":"U-component_of_WINDS"},"data":[0,0,0,0,0,0,0,0,0,0,0,0,0,0,0,0,0,0,0,0,0,0,0,0,0,0,0,0,0,0,0,0,0,0,0,0,0,0,0,0,0,0,0,0,0,0,0,0,0,0,0,0,0,0,0,0,0,0,1.1614,1.1614,0,1.1606,1.1606,1.1606,1.1591,1.159,1.159,1.159,1.158,1.158,1.158,0,0,0,0,0,0,0,0,0,0,0,0,0,1.1614,1.1615,1.1614,1.1614,1.1614,1.1606,1.1606,1.1606,1.1591,1.159,1.159,1.159,1.158,1.158,1.158,0,0,0,0,0,0,0,0,0,0,0,0,0,1.1611,1.1615,1.1614,1.1606,1.1605,1.1606,1.1606,1.1606,1.1591,1.159,1.159,1.159,1.158,1.158,1.158,1.1589,0,0,1.1581,1.1581,0,0,0,0,0,0,0,0,1.1611,1.1611,1.1607,1.1606,1.1605,1.1599,1.1603,1.16,1.1591,1.1596,1.159,1.1589,1.1587,1.1586,1.1586,1.1589,1.1588,1.1581,1.1581,1.1581,1.1581,0,0,0,0,0,0,0,1.1612,1.1611,1.1611,1.1607,1.1606,1.1601,1.16,1.1602,1.1594,1.1596,1.1594,1.1594,1.1586,1.1586,1.1585,1.1588,1.1581,1.1581,1.1581,1.1581,1.1596,1.1596,0,0,0,0,0,0,1.1613,1.1612,1.1611,1.1611,1.1607,1.1602,1.1601,1.1601,1.1594,1.1592,1.1594,1.1593,1.1586,1.1585,1.1585,1.1593,1.1581,1.1581,1.1581,1.1595,1.1596,1.1596,0,0,0,0,0,0,1.1613,1.1613,1.1611,1.1611,1.161,1.1602,1.1603,1.1601,1.1601,1.1593,1.1591,1.1595,1.1586,1.1585,1.1588,1.1593,1.1581,1.1581,1.1595,1.1596,1.1596,1.1611,0,0,0,0,0,0,1.1613,1.1614,1.1617,1.1611,1.161,1.1615,1.1603,1.1602,1.1601,1.16,1.1593,1.1592,1.1585,1.1588,1.1588,1.1593,1.1581,1.1595,1.1595,1.1596,1.161,1.1612,1.1614,0,0,0,0,0,1.1614,1.1622,1.1618,1.1618,1.1615,1.1616,1.1615,1.1608,1.1602,1.1605,1.1599,1.1592,1.1592,1.1588,1.1588,1.1593,1.1594,1.1595,1.1596,1.1609,1.1612,1.1614,0,0,0,0,0,0,1.1629,1.1621,1.1616,1.1623,1.162,1.1613,1.1617,1.1611,1.1609,1.1608,1.1598,1.1597,1.16,1.1597,1.1593,1.16,1.1592,1.1593,1.1602,1.1604,1.1606,1.1607,1.1581,0,0,0,0,0,1.1634,1.1635,1.1628,1.1635,1.1633,1.1626,1.1625,1.162,1.1616,1.1615,1.161,1.1606,1.1605,1.1605,1.1603,1.161,1.1607,1.1613,1.1615,1.1616,1.1617,1.1618,1.162,1.1599,1.1599,1.1599,0,0,1.1643,1.1638,1.164,1.1638,1.1635,1.1636,1.1625,1.1627,1.1627,1.1615,1.1617,1.1613,1.1608,1.1612,1.1614,1.161,1.1622,1.1617,1.1619,1.1618,1.1619,1.1621,1.1623,1.16,1.16,1.16,0,0,1.1659,1.1656,1.1661,1.1658,1.1654,1.1648,1.1649,1.1643,1.1639,1.1642,1.1632,1.1632,1.1631,1.1628,1.1626,1.1639,1.1632,1.1639,1.1648,1.165,1.1651,1.1653,1.1656,1.1658,1.164,1.164,1.164,0,1.167,1.1672,1.1664,1.1666,1.1665,1.1654,1.1658,1.1655,1.165,1.1649,1.1645,1.1642,1.1638,1.1641,1.1644,1.1643,1.1643,1.1639,1.1652,1.1653,1.1654,1.1657,1.1659,1.1641,1.1641,1.164,1.164,0,1.1685,1.1687,1.1691,1.1686,1.1685,1.1688,1.168,1.168,1.1674,1.1668,1.167,1.1665,1.1661,1.1662,1.1656,1.1663,1.166,1.1654,1.1645,1.1657,1.166,1.1661,1.1642,1.1642,1.1641,1.1641,0,0,1.1712,1.1702,1.1704,1.1701,1.1694,1.1695,1.1697,1.1694,1.1693,1.169,1.169,1.1689,1.1683,1.1681,1.1674,1.1676,1.1685,1.1669,1.1669,1.1671,1.169,1.1694,1.1696,1.168,1.168,1.168,1.169,0,1.1726,1.1729,1.1721,1.1726,1.1726,1.1715,1.1716,1.1712,1.1707,1.1705,1.1699,1.1698,1.1691,1.1689,1.169,1.1684,1.1688,1.1683,1.1679,1.1679,1.168,1.1697,1.1702,1.1711,1.1691,1.1691,1.1691,0,1.1743,1.174,1.1745,1.1737,1.1736,1.1738,1.1734,1.1733,1.1727,1.1723,1.172,1.1713,1.1713,1.1705,1.1704,1.1701,1.1699,1.1695,1.1695,1.1694,1.1686,1.1695,1.1714,1.1715,1.1693,1.1693,1.1693,0,1.176,1.1757,1.1759,1.1757,1.1749,1.175,1.1746,1.174,1.1738,1.1734,1.1733,1.1729,1.1727,1.1723,1.1715,1.171,1.1714,1.1706,1.171,1.171,1.1711,1.1711,1.1728,1.1711,1.1711,1.1711,1.1711,0,1.1776,1.1779,1.1767,1.1768,1.177,1.1761,1.1763,1.1758,1.1753,1.1752,1.1743,1.1742,1.1731,1.1729,1.1722,1.1721,1.1721,1.1716,1.1714,1.1717,1.1717,1.1715,1.1714,1.1711,1.1711,1.1711,1.1711,0,1.1795,1.1787,1.1789,1.178,1.1778,1.178,1.1772,1.1772,1.1766,1.1765,1.1764,1.1754,1.1751,1.1742,1.1736,1.1732,1.1733,1.173,1.1735,1.1733,1.1737,1.1736,1.1753,1.1754,1.1737,1.1737,1.1738,0,1.1805,1.1807,1.1798,1.1797,1.1794,1.1792,1.179,1.1781,1.1779,1.1772,1.1772,1.1768,1.1765,1.176,1.1752,1.1747,1.1743,1.1749,1.1742,1.1744,1.1742,1.1741,1.1741,1.175,1.1751,1.1751,1.1751,0,1.1824,1.182,1.1817,1.1813,1.1811,1.1807,1.1803,1.1802,1.1791,1.179,1.1786,1.1783,1.1777,1.1773,1.1767,1.1762,1.1754,1.1753,1.1754,1.1756,1.1758,1.1756,1.1738,1.1753,1.1753,1.1753,1.1752,1.1752,1.1838,1.1838,1.1832,1.1829,1.1825,1.1821,1.182,1.1814,1.1811,1.1805,1.18,1.1797,1.1789,1.1781,1.1776,1.1773,1.1769,1.177,1.177,1.177,1.1771,1.1759,1.1772,1.1772,1.1772,1.1772,1.1772,0,1.1855,1.185,1.1848,1.1842,1.1839,1.1833,1.1827,1.1825,1.1823,1.1817,1.1813,1.1808,1.1804,1.1795,1.179,1.1789,1.1785,1.1787,1.1787,1.1786,1.1775,1.1775,1.179,1.179,1.179,1.179,1.179,1.179,1.1863,1.1863,1.1858,1.1856,1.1851,1.1848,1.1845,1.1841,1.1836,1.1831,1.1827,1.1822,1.1814,1.1808,1.1803,1.1801,1.1799,1.1802,1.1798,1.1788,1.1787,1.1785,1.1784,1.1802,1.1802,1.1809,1.1809,1.1809]},{"header":{"parameterUnit":"m.s-1","parameterCategory":1,"la1":30.2991,"la2":30.254,"lo1":-89.0895,"lo2":-89.0444,"dy":0.0017,"dx":0.0017,"nx":28,"ny":28,"refTime":"2024-07-24T21:00:00:Z","depth":0,"parameterNumber":3,"parameterNumberName":"V-component_of_WINDS"},"data":[0,0,0,0,0,0,0,0,0,0,0,0,0,0,0,0,0,0,0,0,0,0,0,0,0,0,0,0,0,0,0,0,0,0,0,0,0,0,0,0,0,0,0,0,0,0,0,0,0,0,0,0,0,0,0,0,0,0,3.9054,3.9054,0,3.9091,3.9092,3.9092,3.9034,3.9032,3.903,3.9028,3.9065,3.9068,3.9071,0,0,0,0,0,0,0,0,0,0,0,0,0,3.8928,3.8931,3.9054,3.9054,3.9055,3.9091,3.9092,3.9092,3.9034,3.9032,3.9029,3.9027,3.9064,3.9068,3.9071,0,0,0,0,0,0,0,0,0,0,0,0,0,3.8976,3.8932,3.9054,3.903,3.9028,3.9091,3.9092,3.9093,3.9035,3.9032,3.9029,3.9026,3.9063,3.9067,3.9071,3.9159,0,0,3.9085,3.9087,0,0,0,0,0,0,0,0,3.8973,3.8981,3.9033,3.9032,3.903,3.9055,3.9061,3.9115,3.9035,3.9032,3.9028,3.9024,3.9064,3.9068,3.9082,3.9161,3.9162,3.9085,3.9088,3.909,3.9091,0,0,0,0,0,0,0,3.897,3.8979,3.9069,3.9034,3.9032,3.9017,3.902,3.9071,3.9065,3.9032,3.9028,3.9033,3.9063,3.9078,3.9082,3.9163,3.9085,3.9089,3.9091,3.9093,3.9312,3.9315,0,0,0,0,0,0,3.897,3.8976,3.9067,3.907,3.8994,3.9021,3.9025,3.905,3.9064,3.9063,3.9036,3.9031,3.9072,3.9077,3.9083,3.9185,3.9089,3.9094,3.9096,3.9309,3.9313,3.9316,0,0,0,0,0,0,3.8968,3.8979,3.9066,3.9022,3.9032,3.9027,3.9055,3.9052,3.9067,3.9067,3.9065,3.9053,3.907,3.9077,3.914,3.9185,3.9095,3.9099,3.9305,3.931,3.9315,3.9389,0,0,0,0,0,0,3.8964,3.8978,3.9012,3.9023,3.9034,3.9123,3.9058,3.9055,3.9075,3.9068,3.9082,3.9082,3.9068,3.9134,3.9144,3.919,3.9103,3.9301,3.9307,3.9313,3.9383,3.9396,3.9408,0,0,0,0,0,3.896,3.9032,3.9014,3.9026,3.9077,3.9126,3.9132,3.9115,3.9079,3.9112,3.9112,3.9081,3.9179,3.9141,3.9152,3.9199,3.9298,3.9306,3.9313,3.9377,3.9394,3.9407,0,0,0,0,0,0,3.9027,3.9033,3.9013,3.9091,3.9108,3.9116,3.9158,3.9134,3.9161,3.9154,3.9131,3.9135,3.9202,3.9207,3.9164,3.9283,3.9232,3.9242,3.9277,3.9293,3.9305,3.9302,3.9106,0,0,0,0,0,3.905,3.909,3.9093,3.9162,3.9171,3.9163,3.9184,3.9169,3.9186,3.9193,3.9197,3.9214,3.9247,3.9271,3.9302,3.9383,3.9384,3.9421,3.9434,3.9444,3.9452,3.9493,3.9509,3.934,3.934,3.934,0,0,3.91,3.9108,3.9135,3.9175,3.9187,3.9227,3.917,3.9216,3.9245,3.92,3.9259,3.9262,3.9279,3.9351,3.9383,3.9357,3.9499,3.9453,3.9461,3.9464,3.9502,3.9518,3.9533,3.9345,3.9344,3.9344,0,0,3.921,3.9222,3.9279,3.9291,3.9309,3.9303,3.9317,3.9328,3.9328,3.9387,3.9353,3.9387,3.9447,3.946,3.9475,3.9588,3.956,3.9599,3.9663,3.9704,3.9717,3.9729,3.9767,3.9782,3.9608,3.9608,3.9608,0,3.927,3.933,3.9311,3.9359,3.9377,3.9337,3.9394,3.9407,3.9434,3.9447,3.9418,3.9491,3.95,3.9573,3.9601,3.9614,3.9628,3.9597,3.9717,3.9728,3.9739,3.9775,3.979,3.9612,3.9612,3.9611,3.9611,0,3.9401,3.9443,3.9487,3.9514,3.9537,3.9589,3.9577,3.9602,3.9585,3.9581,3.9641,3.965,3.9682,3.9698,3.9682,3.9769,3.9752,3.9721,3.9669,3.976,3.9794,3.9808,3.9619,3.9617,3.9616,3.9615,0,0,3.9555,3.957,3.9586,3.9597,3.9613,3.9645,3.9694,3.9725,3.9747,3.9767,3.9806,3.9857,3.9827,3.9844,3.9829,3.9865,3.9951,3.9828,3.9828,3.9849,4.0045,4.0068,4.0084,3.9933,3.9936,3.9938,4.0043,0,3.9664,3.975,3.9733,3.9816,3.9854,3.9816,3.9859,3.9873,3.987,3.9901,3.9898,3.9934,3.9893,3.9902,3.9936,3.9934,3.999,3.9926,3.9969,3.997,3.9965,4.0102,4.0127,4.0226,4.0056,4.0058,4.006,0,3.9803,3.9827,3.9914,3.9922,3.9937,3.9976,4.0002,4.0033,4.0047,4.0042,4.006,4.0038,4.0085,4.0033,4.0098,4.0054,4.0071,4.0072,4.0076,4.0078,4.002,4.0107,4.0257,4.0271,4.0081,4.0079,4.0078,0,3.9905,3.9959,4.0018,4.0028,4.004,4.0068,4.0074,4.0085,4.0104,4.0126,4.0138,4.0166,4.0181,4.0203,4.0188,4.0152,4.0254,4.0201,4.025,4.0251,4.0273,4.0272,4.0426,4.0286,4.0286,4.0285,4.0285,0,4.0028,4.0082,4.0063,4.0099,4.0158,4.0138,4.0197,4.0198,4.0208,4.0242,4.0212,4.0244,4.0224,4.0254,4.0243,4.0297,4.0305,4.0301,4.0297,4.0303,4.0304,4.0313,4.0305,4.0289,4.0288,4.0288,4.0287,0,4.0151,4.0141,4.0202,4.0207,4.021,4.0253,4.0257,4.029,4.0284,4.0328,4.0337,4.0329,4.0363,4.0351,4.0388,4.038,4.0449,4.0437,4.0444,4.044,4.049,4.0485,4.0654,4.0675,4.0523,4.0524,4.0526,0,4.023,4.027,4.028,4.03,4.0308,4.0343,4.0362,4.0343,4.0363,4.0381,4.0412,4.0443,4.0468,4.0524,4.0521,4.0549,4.0536,4.0594,4.054,4.0544,4.0535,4.0532,4.0535,4.0604,4.0606,4.0607,4.0609,0,4.037,4.0362,4.0391,4.0417,4.0441,4.0461,4.0478,4.0496,4.0478,4.0503,4.0538,4.0556,4.0593,4.0625,4.0649,4.0654,4.0628,4.0625,4.0638,4.0644,4.0646,4.0644,4.0472,4.0621,4.062,4.0619,4.0619,4.0618,4.0472,4.0505,4.0517,4.0549,4.0559,4.0576,4.0606,4.0604,4.0633,4.0662,4.0648,4.0688,4.0699,4.0729,4.0738,4.0768,4.0745,4.0764,4.0768,4.0773,4.0778,4.0642,4.0772,4.0772,4.0771,4.0771,4.0771,0,4.0609,4.0614,4.0643,4.0668,4.0693,4.0666,4.0683,4.0706,4.0741,4.0754,4.0778,4.0817,4.0846,4.0845,4.0872,4.0896,4.0885,4.0904,4.0901,4.0903,4.0798,4.0784,4.0913,4.0913,4.0913,4.0913,4.0913,4.0913,4.0683,4.0737,4.0731,4.079,4.0794,4.0832,4.0844,4.0858,4.0868,4.0913,4.0937,4.0936,4.0943,4.097,4.0995,4.0994,4.1005,4.1028,4.1022,4.0924,4.091,4.0897,4.0883,4.1031,4.1031,4.1124,4.1125,4.1126]}]]